Change the Weather History Date:

Monday, January 16, 2012

  Actual Average Record
Temperature  
Mean Temperature 34 °F -  
Max Temperature 41 °F 48 °F 62 °F (2009)
Min Temperature 28 °F 40 °F 28 °F (2012)
Degree Days  
Heating Degree Days 30    
Moisture  
Dew Point 33 °F    
Average Humidity 95    
Maximum Humidity 100    
Minimum Humidity 76    
Precipitation  
Precipitation 0.22 in - - ()
Sea Level Pressure  
Sea Level Pressure 30.23 in    
Wind  
Wind Speed 5 mph (South)    
Max Wind Speed 18 mph    
Max Gust Speed 24 mph    
Visibility 8 miles    
Events Rain , Snow    
Averages and records for this station are not official NWS values.
T = Trace of Precipitation, MM = Missing Value Source: NWS Daily Summary

Daily Weather History Graph

Daily Weather History Graph

Search for Another Location

Airport or City:

Trip Planner

Search our weather history database for the weather conditions in past years. The results will help you decide how hot, cold, wet, or windy it might be!

Date:

Astronomy

Jan. 16, 2012 Rise Set
Actual Time 7:49 AM PST 5:03 PM PST
Civil Twilight 7:16 AM PST 5:35 PM PST
Nautical Twilight 6:40 AM PST 6:11 PM PST
Astronomical Twilight 6:05 AM PST 6:46 PM PST
Moon 1:00 AM PST (1/16) 11:23 AM PST (1/16)
Length of Visible Light 10h 18m
Length of Day
9h 13m
Last Quarter, 45% of the Moon is Illuminated
Jan 16
Last Quarter
Jan 22
New
Jan 30
First Quarter
Feb 7
Full
Feb 14
Last Quarter

Hourly Weather History & Observations

Time (PST) Temp. Windchill Dew Point Humidity Pressure Visibility Wind Dir Wind Speed Gust Speed Precip Events Conditions
12:15 AM 32.0 °F 26.4 °F 32.0 °F 100% 30.20 in 7.0 mi NE 5.8 mph - N/A   Mostly Cloudy
12:35 AM 32.0 °F 27.5 °F 32.0 °F 100% 30.20 in 10.0 mi East 4.6 mph - N/A   Scattered Clouds
12:55 AM 32.0 °F - 32.0 °F 100% 30.21 in 10.0 mi Calm Calm - N/A   Clear
1:15 AM 32.0 °F - 32.0 °F 100% 30.21 in 7.0 mi Calm Calm - N/A   Scattered Clouds
1:35 AM 30.2 °F - 30.2 °F 100% 30.22 in 10.0 mi Calm Calm - N/A   Scattered Clouds
1:55 AM 30.2 °F - 30.2 °F 100% 30.22 in 10.0 mi Calm Calm - N/A   Clear
2:15 AM 30.2 °F - 30.2 °F 100% 30.22 in 10.0 mi Calm Calm - N/A   Clear
2:35 AM 28.4 °F - 28.4 °F 100% 30.22 in 10.0 mi Calm Calm - N/A   Clear
2:55 AM 30.2 °F - 30.2 °F 100% 30.22 in 10.0 mi Calm Calm - N/A   Scattered Clouds
3:15 AM 28.4 °F - 28.4 °F 100% 30.23 in 10.0 mi Calm Calm - N/A   Scattered Clouds
3:35 AM 28.4 °F - 28.4 °F 100% 30.23 in 10.0 mi Calm Calm - N/A   Scattered Clouds
3:55 AM 28.4 °F - 28.4 °F 100% 30.23 in 10.0 mi Calm Calm - N/A   Scattered Clouds
4:15 AM 28.4 °F - 28.4 °F 100% 30.23 in 10.0 mi Calm Calm - N/A   Clear
4:35 AM 30.2 °F - 30.2 °F 100% 30.23 in 10.0 mi Calm Calm - N/A   Clear
4:55 AM 30.2 °F - 30.2 °F 100% 30.23 in 10.0 mi Calm Calm - N/A   Scattered Clouds
5:15 AM 30.2 °F - 30.2 °F 100% 30.23 in 10.0 mi Calm Calm - N/A   Mostly Cloudy
5:35 AM 32.0 °F - 32.0 °F 100% 30.23 in 10.0 mi Calm Calm - N/A   Mostly Cloudy
5:55 AM 32.0 °F - 30.2 °F 93% 30.24 in 10.0 mi Calm Calm - N/A   Overcast
6:15 AM 32.0 °F - 32.0 °F 100% 30.25 in 5.0 mi Calm Calm - N/A Snow Light Snow
6:35 AM 32.0 °F - 32.0 °F 100% 30.25 in 2.0 mi Calm Calm - 0.01 in Snow Light Snow
6:55 AM 32.0 °F - 32.0 °F 100% 30.26 in 10.0 mi Calm Calm - 0.02 in   Scattered Clouds
7:15 AM 32.0 °F - 32.0 °F 100% 30.25 in 10.0 mi Calm Calm - N/A   Mostly Cloudy
7:35 AM 32.0 °F - 32.0 °F 100% 30.26 in 7.0 mi Calm Calm - N/A Snow Light Snow
7:55 AM 32.0 °F 28.7 °F 32.0 °F 100% 30.26 in 5.0 mi SE 3.5 mph - N/A Snow Light Snow
8:15 AM 32.0 °F 27.5 °F 32.0 °F 100% 30.26 in 7.0 mi SE 4.6 mph - 0.01 in   Overcast
8:35 AM 32.0 °F 27.5 °F 32.0 °F 100% 30.26 in 10.0 mi SE 4.6 mph - 0.01 in   Overcast
8:55 AM 33.8 °F 29.6 °F 32.0 °F 93% 30.25 in 10.0 mi SE 4.6 mph - 0.01 in   Scattered Clouds
9:15 AM 33.8 °F - 32.0 °F 93% 30.26 in 10.0 mi Calm Calm - N/A   Clear
9:35 AM 33.8 °F 27.0 °F 32.0 °F 93% 30.27 in 10.0 mi SSE 8.1 mph - N/A   Mostly Cloudy
9:55 AM 33.8 °F 26.4 °F 32.0 °F 93% 30.27 in 10.0 mi SSE 9.2 mph - N/A   Overcast
10:15 AM 35.6 °F 28.6 °F 32.0 °F 87% 30.27 in 10.0 mi South 9.2 mph - N/A   Mostly Cloudy
10:35 AM 35.6 °F 28.6 °F 33.8 °F 93% 30.27 in 10.0 mi South 9.2 mph - N/A   Scattered Clouds
10:55 AM 35.6 °F 27.5 °F 33.8 °F 93% 30.27 in 10.0 mi South 11.5 mph - N/A   Clear
11:15 AM 35.6 °F 28.0 °F 33.8 °F 93% 30.27 in 10.0 mi South 10.4 mph - N/A   Scattered Clouds
11:35 AM 35.6 °F 26.6 °F 33.8 °F 93% 30.27 in 10.0 mi South 13.8 mph - N/A   Mostly Cloudy
11:55 AM 35.6 °F 27.1 °F 33.8 °F 93% 30.26 in 7.0 mi South 12.7 mph - N/A Rain Light Rain
12:15 PM 35.6 °F 29.9 °F 33.8 °F 93% 30.26 in 5.0 mi SSE 6.9 mph 10.4 mph 0.02 in Rain Light Rain
12:35 PM 33.8 °F 26.4 °F 32.0 °F 93% 30.26 in 1.8 mi South 9.2 mph - 0.06 in Snow Light Snow
12:55 PM 35.6 °F 26.2 °F 33.8 °F 93% 30.25 in 4.0 mi SSW 15.0 mph 23.0 mph 0.07 in Rain Light Rain
1:15 PM 35.6 °F 29.2 °F 35.6 °F 100% 30.24 in 10.0 mi SSW 8.1 mph - N/A   Overcast
1:35 PM 37.4 °F 29.3 °F 35.6 °F 93% 30.23 in 10.0 mi South 12.7 mph - N/A   Overcast
1:55 PM 35.6 °F 28.0 °F 33.8 °F 93% 30.24 in 5.0 mi SSW 10.4 mph - N/A Rain Light Rain
2:15 PM 35.6 °F 32.8 °F 33.8 °F 93% 30.23 in 3.0 mi SSE 3.5 mph - 0.02 in Rain Light Rain
2:35 PM 35.6 °F 31.7 °F 33.8 °F 93% 30.22 in 7.0 mi South 4.6 mph - 0.02 in Rain Rain
2:55 PM 39.2 °F 30.5 °F 35.6 °F 87% 30.22 in 10.0 mi SSW 16.1 mph 24.2 mph 0.02 in   Overcast
3:15 PM 39.2 °F 34.2 °F 35.6 °F 87% 30.23 in 7.0 mi West 6.9 mph 20.7 mph N/A Rain Light Rain
3:35 PM 37.4 °F 28.9 °F 35.6 °F 93% 30.23 in 5.0 mi West 13.8 mph 21.9 mph 0.01 in Rain Light Rain
3:55 PM 37.4 °F - 35.6 °F 93% 30.22 in 7.0 mi Calm Calm - 0.03 in   Overcast
4:35 PM 41.0 °F 33.1 °F 35.6 °F 81% 30.22 in 10.0 mi SW 15.0 mph 19.6 mph N/A   Overcast
4:55 PM 39.2 °F 31.2 °F 35.6 °F 87% 30.21 in 10.0 mi SW 13.8 mph 19.6 mph N/A   Scattered Clouds
5:15 PM 41.0 °F 33.9 °F 33.8 °F 76% 30.21 in 10.0 mi SW 12.7 mph 19.6 mph N/A   Scattered Clouds
5:35 PM 41.0 °F 33.1 °F 33.8 °F 76% 30.21 in 10.0 mi SW 15.0 mph 20.7 mph N/A   Mostly Cloudy
5:55 PM 41.0 °F 33.5 °F 35.6 °F 81% 30.22 in 10.0 mi West 13.8 mph 18.4 mph N/A   Overcast
6:15 PM 37.4 °F 28.5 °F 33.8 °F 87% 30.22 in 10.0 mi West 15.0 mph 21.9 mph N/A Rain Rain
6:35 PM 37.4 °F 30.3 °F 35.6 °F 93% 30.21 in 4.0 mi SW 10.4 mph - 0.03 in Rain Rain
6:55 PM 37.4 °F 30.8 °F 35.6 °F 93% 30.21 in 5.0 mi WSW 9.2 mph - 0.05 in Rain Light Rain
7:15 PM 35.6 °F 27.5 °F 33.8 °F 93% 30.21 in 4.0 mi SSW 11.5 mph - 0.02 in Rain Rain
7:35 PM 35.6 °F 29.2 °F 33.8 °F 93% 30.20 in 10.0 mi South 8.1 mph - 0.02 in   Overcast
7:55 PM 35.6 °F 29.2 °F 35.6 °F 100% 30.19 in 10.0 mi SSE 8.1 mph - 0.02 in   Overcast
8:15 PM 35.6 °F 27.5 °F 35.6 °F 100% 30.18 in 10.0 mi South 11.5 mph - N/A   Overcast
8:35 PM 37.4 °F 30.8 °F 35.6 °F 93% 30.18 in 10.0 mi SSW 9.2 mph - N/A   Overcast
8:55 PM 37.4 °F 27.5 °F 35.6 °F 93% 30.18 in 10.0 mi SSW 18.4 mph 23.0 mph N/A   Mostly Cloudy
9:15 PM 37.4 °F 28.2 °F 35.6 °F 93% 30.17 in 10.0 mi SSW 16.1 mph 21.9 mph N/A   Scattered Clouds
9:35 PM 37.4 °F 30.3 °F 35.6 °F 93% 30.17 in 10.0 mi South 10.4 mph 19.6 mph N/A   Mostly Cloudy
10:15 PM 37.4 °F 28.5 °F 35.6 °F 93% 30.16 in 10.0 mi South 15.0 mph - N/A   Light Drizzle
10:35 PM 37.4 °F 27.5 °F 35.6 °F 93% 30.16 in 10.0 mi SSW 18.4 mph 25.3 mph N/A   Overcast
11:15 PM 37.4 °F 28.5 °F 35.6 °F 93% 30.16 in 10.0 mi South 15.0 mph 20.7 mph N/A   Overcast
11:35 PM 37.4 °F 29.3 °F 35.6 °F 93% 30.16 in 5.0 mi SW 12.7 mph 23.0 mph 0.04 in Rain Light Rain
11:55 PM 39.2 °F 31.6 °F 35.6 °F 87% 30.16 in 10.0 mi SW 12.7 mph - 0.04 in   Mostly Cloudy